Weather History for Rome Ciampino, Italy

Change the Weather History Date:

Thursday, November 8, 2012

  Actual Average Record
Temperature  
Mean Temperature 54 °F -  
Max Temperature 66 °F 59 °F 69 °F (2013)
Min Temperature 42 °F 43 °F 41 °F (2007)
Degree Days  
Heating Degree Days 11    
Growing Degree Days 4 (Base 50)    
Moisture  
Dew Point 47 °F    
Average Humidity 82    
Maximum Humidity 94    
Minimum Humidity 64    
Precipitation  
Precipitation 0.00 in 0.16 in - ()
Sea Level Pressure  
Sea Level Pressure 30.26 in    
Wind  
Wind Speed 3 mph ()    
Max Wind Speed 5 mph    
Max Gust Speed -    
Visibility 6.2 miles    
Events      
Averages and records for this station are not official NWS values.
T = Trace of Precipitation, MM = Missing Value Source: Averaged Metar Reports

Daily Weather History Graph

Daily Weather History Graph

Search for Another Location

Airport:

Trip Planner

Search our weather history database for the weather conditions in past years. The results will help you decide how hot, cold, wet, or windy it might be!

Date:

Astronomy

Nov. 08, 2012 Rise Set
Actual Time 6:50 AM CET 4:55 PM CET
Civil Twilight 6:21 AM CET 5:24 PM CET
Nautical Twilight 5:48 AM CET 5:58 PM CET
Astronomical Twilight 5:15 AM CET 6:30 PM CET
Moon 12:22 AM CET (11/8) 1:32 PM CET (11/8)
Length of Visible Light 11h 03m
Length of Day
10h 04m
Waning Crescent, 35% of the Moon is Illuminated
Nov 8
Waning Crescent
Nov 13
New
Nov 20
First Quarter
Nov 28
Full
Dec 6
Last Quarter

Hourly Weather History & Observations

Time (CET) Temp. Windchill Dew Point Humidity Pressure Visibility Wind Dir Wind Speed Gust Speed Precip Events Conditions
12:15 AM 48.2 °F - 44.6 °F 87% 30.30 in - North 2.3 mph - N/A   Clear
12:45 AM 46.4 °F 44.3 °F 42.8 °F 87% 30.30 in - NNE 4.6 mph - N/A   Clear
1:15 AM 46.4 °F 45.2 °F 42.8 °F 87% 30.30 in - NE 3.5 mph - N/A   Clear
1:45 AM 46.4 °F 45.2 °F 42.8 °F 87% 30.30 in - NE 3.5 mph - N/A   Clear
2:15 AM 46.4 °F 45.2 °F 42.8 °F 87% 30.30 in - NE 3.5 mph - N/A   Clear
2:45 AM 46.4 °F 44.3 °F 42.8 °F 87% 30.30 in - NNE 4.6 mph - N/A   Clear
3:15 AM 46.4 °F 44.3 °F 42.8 °F 87% 30.30 in - NE 4.6 mph - N/A   Clear
3:45 AM 44.6 °F 43.1 °F 41.0 °F 87% 30.30 in - NNE 3.5 mph - N/A   Clear
4:15 AM 44.6 °F - 41.0 °F 87% 30.27 in - NNE 1.2 mph - N/A   Clear
4:45 AM 42.8 °F - 41.0 °F 93% 30.27 in - NNE 2.3 mph - N/A   Clear
5:15 AM 42.8 °F - 41.0 °F 93% 30.27 in - NNE 1.2 mph - N/A   Clear
5:45 AM 42.8 °F - 41.0 °F 93% 30.27 in 6.2 mi NNE 1.2 mph - N/A   Partly Cloudy
6:15 AM 42.8 °F - 39.2 °F 87% 30.30 in - NNE 2.3 mph - N/A   Clear
6:45 AM 42.8 °F - 39.2 °F 87% 30.30 in - NE 2.3 mph - N/A   Clear
7:15 AM 42.8 °F - 39.2 °F 87% 30.30 in 6.2 mi NNE 2.3 mph - N/A   Partly Cloudy
7:45 AM 42.8 °F - 41.0 °F 93% 30.30 in 6.2 mi NNE 2.3 mph - N/A   Partly Cloudy
8:15 AM 46.4 °F - 42.8 °F 87% 30.30 in 6.2 mi NNE 2.3 mph - N/A   Partly Cloudy
8:45 AM 48.2 °F - 42.8 °F 82% 30.30 in 6.2 mi NNE 3.5 mph - N/A   Partly Cloudy
9:15 AM 50.0 °F - 44.6 °F 82% 30.30 in 6.2 mi NNE 3.5 mph - N/A   Partly Cloudy
9:45 AM 50.0 °F - 42.8 °F 76% 30.30 in 6.2 mi North 3.5 mph - N/A   Partly Cloudy
10:15 AM 53.6 °F - 46.4 °F 77% 30.30 in 6.2 mi North 3.5 mph - N/A   Partly Cloudy
10:45 AM 57.2 °F - 48.2 °F 72% 30.30 in 6.2 mi NE 4.6 mph - N/A   Partly Cloudy
11:15 AM 59.0 °F - 50.0 °F 72% 30.30 in 6.2 mi North 3.5 mph - N/A   Partly Cloudy
11:45 AM 60.8 °F - 50.0 °F 68% 30.30 in 6.2 mi NNE 2.3 mph - N/A   Partly Cloudy
12:15 PM 60.8 °F - 51.8 °F 72% 30.30 in 6.2 mi NNE 2.3 mph - N/A   Partly Cloudy
12:45 PM 62.6 °F - 51.8 °F 68% 30.27 in 6.2 mi SSW 3.5 mph - N/A   Partly Cloudy
1:15 PM 62.6 °F - 51.8 °F 68% 30.27 in 6.2 mi WSW 1.2 mph - N/A   Scattered Clouds
1:45 PM 64.4 °F - 51.8 °F 64% 30.24 in 6.2 mi SSW 3.5 mph - N/A   Scattered Clouds
2:15 PM 66.2 °F - 53.6 °F 64% 30.24 in 6.2 mi SW 3.5 mph - N/A   Scattered Clouds
2:45 PM 64.4 °F - 51.8 °F 64% 30.24 in 6.2 mi WNW 4.6 mph - N/A   Scattered Clouds
3:15 PM 64.4 °F - 51.8 °F 64% 30.24 in 6.2 mi NW 3.5 mph - N/A   Scattered Clouds
3:45 PM 62.6 °F - 51.8 °F 68% 30.21 in 6.2 mi WNW 2.3 mph - N/A   Scattered Clouds
4:15 PM 62.6 °F - 53.6 °F 72% 30.21 in 6.2 mi WSW 2.3 mph - N/A   Partly Cloudy
4:45 PM 62.6 °F - 53.6 °F 72% 30.18 in 6.2 mi West 1.2 mph - N/A   Partly Cloudy
5:15 PM 59.0 °F - 51.8 °F 77% 30.18 in 6.2 mi WSW 2.3 mph - N/A   Partly Cloudy
5:45 PM 57.2 °F - 51.8 °F 82% 30.21 in 6.2 mi SSW 2.3 mph - N/A   Partly Cloudy
6:15 PM 55.4 °F - 51.8 °F 88% 30.21 in 6.2 mi SSE 2.3 mph - N/A   Partly Cloudy
6:45 PM 55.4 °F - 51.8 °F 88% 30.21 in 6.2 mi SSE 2.3 mph - N/A   Partly Cloudy
7:15 PM 53.6 °F - 50.0 °F 88% 30.21 in 6.2 mi SE 2.3 mph - N/A   Partly Cloudy
8:45 PM 53.6 °F - 50.0 °F 88% 30.18 in 6.2 mi SE 3.5 mph - N/A   Partly Cloudy
9:15 PM 51.8 °F - 48.2 °F 88% 30.18 in 6.2 mi SE 2.3 mph - N/A   Partly Cloudy
9:45 PM 51.8 °F - 50.0 °F 94% 30.18 in 6.2 mi SE 3.5 mph - N/A   Partly Cloudy
10:15 PM 51.8 °F - 48.2 °F 88% 30.18 in - ESE 2.3 mph - N/A   Clear
10:45 PM 50.0 °F - 48.2 °F 94% 30.18 in - SE 1.2 mph - N/A   Clear
11:15 PM 50.0 °F - 48.2 °F 94% 30.18 in - Calm Calm - N/A   Clear
11:45 PM 48.2 °F - 46.4 °F 93% 30.18 in - Calm Calm - N/A   Clear